Wind_Speed
65 69 71 71 69 72 73 69 68 70 74 76 76 77 81 77 77 83 83 78 73 72 74 73 77 76 78 79 76 75 75 75 71 71 70 69 70 70 70 71 72 73 74
64 63 62 59 63 69 70 64 59 60 61 54 59 63 74 85 86 80 81 81 78 79 75 76 75 77 80 83 82 77 78 78 74 72 72 71 72 72 73 73 73 74 73
63 60 58 56 61 70 70 50 40 28 29 38 50 52 46 47 70 82 77 77 74 78 78 81 83 88 84 85 85 83 83 80 76 73 74 73 73 74 73 73 73 73 73
55 55 52 56 59 61 49 34 26 14 18 22 27 33 31 35 43 51 56 65 76 87 90 86 84 82 84 85 85 83 83 81 79 78 76 73 73 75 73 74 74 74 73
44 51 53 56 53 44 36 31 20 14 13 17 15 18 24 27 30 37 45 51 53 62 73 77 85 83 81 83 82 80 78 78 78 77 75 75 76 75 74 71 72 71 69
37 40 41 46 40 39 45 34 17 12 8 9 16 22 23 31 40 43 49 59 62 62 62 67 70 77 80 78 75 76 76 73 75 73 73 72 72 71 72 71 69 67 65
34 38 41 39 50 54 44 31 22 9 6 9 18 22 27 29 25 27 32 35 47 60 59 61 69 71 72 73 71 71 71 69 68 68 70 70 69 67 64 64 60 57 54
30 35 40 44 46 43 38 31 26 13 8 10 21 25 26 28 29 35 36 41 43 51 58 55 57 63 65 64 62 61 64 64 62 62 63 62 58 58 57 57 52 48 50
33 36 43 43 42 34 25 36 27 22 19 17 18 29 34 33 35 43 47 45 43 40 49 51 48 53 58 60 58 57 56 53 53 56 58 57 52 48 51 45 46 49 52
37 49 46 55 39 29 35 34 32 36 21 17 22 34 36 39 41 43 49 41 38 35 36 38 44 50 50 50 53 50 49 52 50 50 51 51 47 42 46 48 51 54 57
50 48 42 46 34 22 38 30 43 45 30 25 25 38 43 44 47 50 43 36 39 33 32 36 36 38 39 42 43 45 46 44 46 44 44 47 45 46 49 53 53 56 55
42 43 46 45 38 32 44 42 51 49 41 32 30 22 36 28 32 33 35 39 39 40 32 30 30 31 33 37 39 40 41 42 35 41 41 44 46 53 55 55 54 56 63
42 40 46 47 47 33 36 48 46 30 43 34 32 32 17 25 33 33 36 38 42 42 30 33 32 28 31 33 37 35 34 37 37 43 44 50 56 57 58 59 61 63 61
41 43 40 33 44 43 35 54 48 45 53 45 36 35 23 33 35 33 32 31 40 30 37 32 30 31 37 35 38 37 39 43 46 48 51 56 58 59 62 62 58 66 73
41 35 36 27 42 44 37 46 48 46 48 41 41 41 35 31 29 26 30 40 38 33 32 29 33 41 38 38 39 40 43 48 51 53 57 58 59 59 60 64 70 72 72
48 39 37 35 42 38 37 44 50 45 47 48 45 46 41 37 32 27 37 38 37 36 35 34 39 40 42 41 44 45 49 52 55 56 57 58 60 63 65 70 72 71 74
47 42 42 40 50 50 49 49 57 52 53 50 52 50 46 41 43 45 36 39 35 36 41 42 41 46 48 47 51 49 55 56 57 55 62 63 66 70 68 69 71 77 82
47 44 50 49 49 51 55 58 57 50 54 54 51 51 49 44 45 42 39 43 41 44 44 48 49 50 51 53 58 58 58 59 60 64 68 70 72 70 70 76 79 81 82
53 48 57 57 51 59 51 59 57 53 49 57 56 48 50 45 43 42 46 47 48 52 55 60 60 60 61 62 60 62 64 67 68 70 72 77 73 76 74 77 81 85 82
55 51 57 59 54 53 61 50 60 57 58 53 49 46 47 45 50 51 55 57 61 59 62 63 64 62 64 67 68 70 71 70 74 78 78 76 73 75 79 80 83 81 85
63 58 59 63 58 62 61 60 57 54 54 53 51 56 58 64 67 69 66 63 60 62 61 63 66 67 67 68 63 66 67 72 72 76 73 73 79 79 77 80 83 86 87
68 64 57 68 64 61 67 71 67 68 64 63 59 63 66 69 71 67 69 71 66 62 60 64 61 57 61 65 70 71 75 74 73 71 72 75 77 80 83 84 86 88 86
72 78 66 71 67 65 66 70 72 74 74 74 73 70 70 71 66 66 64 63 66 67 58 60 62 64 69 68 67 67 69 69 71 74 76 78 78 82 86 86 85 87 86
64 66 76 72 71 75 73 72 77 77 75 77 76 75 74 71 70 70 71 62 68 64 57 61 64 60 60 62 64 66 70 73 77 78 81 81 82 84 83 89 87 85 87
61 63 59 72 76 72 80 75 76 71 72 72 73 71 71 69 71 74 66 63 60 64 62 63 61 62 66 66 69 75 78 82 80 81 82 88 87 85 84 87 85 88 88
53 58 58 66 69 73 70 69 67 70 69 69 75 74 70 72 65 62 60 56 59 63 61 65 66 70 71 73 75 74 73 76 80 82 84 87 84 85 87 91 90 90 90
Wind_Direction
264 258 254 252 249 251 248 243 243 244 243 242 240 243 242 248 250 249 249 255 253 251 251 255 256 258 259 259 260 262 264 267 268 271 271 273 273 276 277 279 281 281 283
257 252 252 250 248 243 244 247 246 253 262 246 247 247 248 250 247 251 253 255 259 256 257 259 262 265 264 263 263 265 267 268 269 273 275 277 278 278 280 282 284 286 289
255 247 241 238 239 242 246 246 257 241 260 238 238 243 245 248 251 248 256 260 259 256 258 261 265 266 264 264 265 266 267 269 272 274 275 279 280 282 284 286 288 289 291
252 248 237 234 235 237 237 219 220 246 259 230 224 231 242 249 246 248 254 255 255 258 260 262 263 263 263 263 264 265 267 271 273 274 276 278 280 282 286 288 291 292 293
244 245 236 224 224 228 212 198 215 246 246 232 231 241 232 246 247 257 254 258 261 259 260 260 260 260 262 263 266 270 272 273 274 274 279 282 284 285 287 289 291 292 293
218 225 228 217 209 200 190 190 212 205 244 251 251 260 257 246 259 257 261 257 260 261 260 259 260 262 263 265 269 273 274 276 279 281 282 285 287 289 288 291 290 293 294
205 205 194 195 192 181 187 178 180 169 209 262 246 240 237 240 257 264 276 290 279 264 258 255 257 262 264 267 268 272 273 277 282 285 284 287 289 291 291 292 291 291 291
191 187 181 184 188 185 170 167 180 197 248 243 261 258 250 258 269 282 290 296 292 274 262 257 257 261 264 267 272 275 278 280 282 285 286 289 289 289 290 289 288 286 287
167 183 180 191 178 173 167 183 194 207 238 269 265 271 267 270 277 285 291 295 292 285 270 264 263 263 263 266 273 277 281 284 286 287 285 286 284 283 287 288 287 286 289
176 178 182 178 172 174 186 193 212 218 246 245 253 256 272 279 279 283 291 291 279 286 281 269 264 267 275 280 279 282 282 286 285 283 279 281 285 284 284 284 285 286 290
174 179 174 182 182 183 182 190 213 224 248 236 261 266 274 277 278 285 288 291 294 292 293 286 278 282 283 282 279 276 279 276 275 273 277 278 290 290 291 292 293 291 293
165 167 176 187 190 197 210 206 209 215 237 246 259 284 281 273 289 288 275 285 299 303 295 301 282 273 271 276 280 278 282 282 277 278 287 288 285 283 288 293 289 291 297
166 167 174 179 194 204 198 195 213 224 215 244 263 275 248 279 289 286 287 295 299 304 295 300 292 285 281 285 285 282 283 285 286 284 282 287 286 290 291 297 293 295 297
155 153 162 173 193 205 201 207 203 200 215 243 248 260 240 277 292 301 291 297 302 290 298 295 291 297 287 282 284 289 289 289 288 285 284 286 286 294 295 295 294 293 297
166 175 186 185 188 201 206 199 209 219 232 229 248 251 248 256 275 287 279 298 292 291 281 278 287 297 285 283 288 290 289 290 292 287 290 292 294 293 293 294 294 295 295
185 190 197 185 174 173 186 199 209 214 232 242 244 256 256 254 268 264 288 283 285 278 281 281 286 287 281 284 286 288 287 288 287 290 289 291 289 291 294 294 294 292 293
190 192 189 192 182 188 188 199 209 227 231 238 244 250 262 265 267 283 285 279 288 284 285 290 287 298 286 280 288 285 287 290 288 284 287 288 289 292 294 291 287 291 296
199 204 199 195 199 187 194 202 211 222 232 238 243 248 260 268 274 276 284 284 287 289 287 288 294 293 291 290 292 293 290 288 284 283 284 287 289 290 289 292 292 293 295
206 214 198 196 199 199 209 210 219 224 234 239 244 251 255 259 267 274 279 286 287 291 292 293 293 292 291 291 292 289 289 288 289 288 288 290 289 289 289 288 292 293 294
213 211 207 208 203 220 213 227 226 229 235 244 248 253 261 267 271 279 281 283 286 287 288 286 289 287 287 288 288 290 288 289 288 291 292 290 289 287 290 290 293 293 293
219 221 219 213 222 220 221 219 230 239 248 248 255 258 260 264 271 274 279 285 285 285 285 285 285 284 284 285 286 288 285 289 289 293 290 288 288 290 290 292 292 294 296
228 229 228 221 226 229 230 231 236 237 246 254 263 265 263 269 273 275 280 280 280 284 286 287 285 282 282 282 283 287 289 290 289 286 285 285 287 291 293 295 294 295 297
233 236 235 228 232 233 237 238 242 244 247 250 255 261 264 268 273 275 278 281 278 282 279 278 278 280 280 287 289 288 288 286 286 288 289 290 290 292 295 297 297 296 297
230 233 235 237 236 236 242 244 245 247 250 253 257 261 265 268 273 277 280 281 284 282 278 284 285 284 283 286 288 288 287 288 292 293 293 291 291 295 294 294 295 295 295
236 242 233 233 235 240 241 244 248 250 253 256 257 263 268 273 276 278 279 286 287 285 285 286 282 282 283 283 287 290 289 290 291 291 291 292 293 296 294 293 293 293 294
239 241 245 237 234 240 249 249 251 253 258 262 262 266 271 271 272 275 275 277 280 282 283 283 282 283 285 286 288 290 291 290 289 290 293 295 297 298 297 299 299 298 299
Height
10724 10727 10729 10732 10743 10744 10744 10751 10758 10761 10770 10779 10787 10791 10796 10798 10801 10808 10813 10816 10819 10823 10822 10823 10822 10822 10822 10823 10827 10827 10826 10827 10830 10830 10830 10831 10829 10828 10827 10825 10823 10820 10819
10704 10709 10715 10722 10730 10731 10733 10747 10753 10761 10762 10776 10779 10782 10787 10790 10792 10795 10800 10805 10812 10813 10813 10813 10814 10813 10812 10815 10815 10818 10818 10818 10820 10821 10820 10821 10819 10818 10816 10814 10812 10809 10807
10685 10693 10700 10707 10713 10717 10726 10746 10750 10756 10756 10760 10770 10771 10772 10775 10782 10789 10793 10796 10798 10797 10800 10802 10801 10797 10801 10805 10805 10807 10807 10810 10812 10813 10810 10810 10808 10806 10804 10803 10801 10799 10797
10671 10680 10689 10697 10700 10708 10728 10742 10747 10749 10749 10750 10753 10759 10764 10770 10774 10780 10785 10786 10787 10791 10790 10793 10790 10785 10789 10791 10793 10796 10798 10800 10800 10799 10800 10800 10798 10796 10795 10792 10790 10790 10787
10661 10669 10676 10685 10690 10702 10717 10730 10738 10740 10744 10743 10746 10751 10755 10759 10765 10771 10774 10775 10778 10781 10782 10781 10774 10772 10779 10780 10783 10785 10787 10787 10787 10788 10790 10788 10786 10786 10783 10782 10781 10779 10777
10650 10661 10669 10679 10686 10693 10702 10710 10723 10732 10737 10738 10740 10742 10750 10753 10758 10761 10764 10766 10767 10770 10769 10770 10763 10760 10765 10770 10774 10774 10774 10776 10777 10778 10778 10779 10776 10776 10774 10773 10770 10768 10765
10642 10652 10659 10668 10676 10680 10692 10699 10712 10725 10730 10732 10737 10741 10743 10745 10749 10753 10754 10756 10756 10758 10759 10757 10752 10753 10755 10759 10765 10766 10767 10768 10769 10770 10768 10768 10766 10765 10764 10762 10760 10757 10756
10639 10645 10656 10672 10683 10689 10691 10692 10701 10715 10721 10723 10729 10733 10736 10737 10742 10745 10746 10746 10747 10747 10751 10750 10746 10745 10746 10749 10756 10758 10758 10761 10762 10760 10759 10758 10757 10755 10754 10752 10750 10748 10746
10635 10646 10658 10671 10681 10682 10685 10690 10697 10708 10715 10716 10722 10723 10728 10731 10733 10735 10735 10738 10740 10741 10746 10748 10742 10737 10737 10740 10749 10751 10750 10752 10753 10752 10751 10749 10747 10746 10744 10743 10741 10740 10738
10638 10646 10655 10668 10676 10683 10685 10690 10699 10703 10710 10715 10715 10717 10719 10723 10726 10729 10730 10732 10733 10735 10741 10741 10736 10733 10737 10738 10740 10744 10743 10743 10744 10743 10741 10741 10739 10737 10737 10735 10734 10731 10730
10640 10648 10660 10670 10676 10679 10679 10686 10695 10697 10702 10707 10709 10709 10711 10715 10719 10724 10726 10727 10730 10731 10733 10737 10733 10731 10729 10731 10733 10734 10736 10735 10736 10735 10734 10733 10730 10729 10727 10726 10724 10722 10720
10643 10652 10663 10671 10678 10680 10682 10684 10688 10699 10703 10703 10704 10700 10702 10706 10711 10715 10718 10722 10725 10727 10725 10729 10728 10727 10725 10726 10727 10727 10727 10726 10727 10727 10727 10725 10723 10721 10720 10718 10716 10712 10710
10645 10655 10662 10669 10673 10677 10680 10685 10690 10691 10689 10697 10700 10697 10696 10700 10705 10708 10712 10715 10717 10722 10722 10724 10725 10723 10723 10722 10722 10722 10722 10720 10721 10721 10720 10718 10715 10713 10710 10708 10704 10702 10697
10647 10653 10660 10666 10670 10675 10680 10681 10688 10694 10696 10698 10696 10696 10694 10695 10696 10702 10706 10708 10710 10714 10715 10715 10716 10717 10716 10717 10718 10716 10715 10714 10713 10712 10710 10709 10706 10703 10700 10696 10693 10690 10685
10647 10651 10659 10666 10667 10671 10678 10683 10687 10688 10694 10693 10694 10693 10692 10692 10693 10698 10701 10704 10706 10707 10707 10709 10711 10710 10708 10708 10709 10709 10707 10705 10704 10703 10700 10696 10694 10692 10689 10684 10681 10677 10672
10645 10650 10658 10664 10667 10673 10678 10684 10687 10683 10685 10689 10690 10689 10689 10689 10692 10696 10700 10698 10700 10701 10702 10703 10704 10704 10701 10699 10699 10698 10697 10697 10695 10691 10688 10685 10682 10679 10676 10672 10667 10662 10658
10643 10648 10656 10661 10665 10669 10673 10678 10678 10681 10681 10684 10681 10683 10685 10687 10688 10692 10695 10694 10694 10695 10695 10694 10695 10695 10696 10692 10690 10689 10687 10686 10684 10680 10678 10674 10670 10667 10663 10658 10652 10647 10642
10642 10646 10653 10657 10662 10664 10668 10671 10671 10671 10674 10673 10675 10678 10680 10680 10682 10685 10688 10688 10688 10688 10687 10687 10686 10684 10684 10682 10681 10678 10675 10674 10674 10670 10667 10663 10659 10655 10650 10645 10639 10632 10628
10640 10642 10646 10652 10657 10660 10661 10664 10668 10668 10668 10668 10671 10673 10675 10675 10676 10679 10681 10681 10680 10680 10679 10679 10678 10675 10675 10674 10672 10670 10665 10662 10658 10655 10651 10649 10644 10641 10635 10630 10624 10618 10613
10637 10640 10644 10647 10650 10656 10657 10659 10661 10661 10664 10665 10668 10667 10667 10669 10671 10674 10675 10674 10675 10672 10670 10669 10667 10666 10664 10664 10661 10658 10654 10650 10647 10643 10637 10632 10627 10622 10619 10614 10608 10601 10595
10634 10638 10643 10643 10647 10651 10653 10653 10656 10659 10660 10662 10661 10660 10662 10664 10666 10668 10667 10666 10664 10663 10660 10660 10656 10656 10653 10651 10648 10647 10642 10637 10633 10629 10624 10619 10614 10608 10603 10597 10590 10585 10578
10624 10631 10635 10640 10642 10646 10651 10652 10653 10653 10653 10655 10655 10654 10657 10658 10659 10658 10657 10655 10654 10652 10649 10648 10645 10642 10641 10640 10639 10635 10631 10627 10623 10617 10611 10606 10599 10592 10587 10581 10575 10567 10561
10620 10625 10626 10631 10634 10637 10639 10642 10641 10645 10646 10646 10647 10647 10647 10649 10649 10647 10645 10644 10642 10641 10637 10637 10634 10632 10630 10626 10623 10619 10617 10611 10608 10601 10596 10591 10584 10578 10572 10564 10555 10548 10541
10608 10612 10617 10621 10626 10629 10632 10632 10636 10636 10638 10638 10638 10639 10639 10641 10639 10637 10634 10631 10631 10629 10627 10625 10623 10618 10616 10613 10611 10608 10604 10597 10590 10584 10577 10571 10570 10566 10558 10548 10540 10531 10524
10597 10601 10605 10610 10615 10619 10623 10626 10626 10626 10628 10629 10629 10630 10629 10627 10623 10623 10622 10617 10616 10614 10611 10610 10611 10606 10601 10597 10596 10593 10589 10584 10578 10570 10563 10553 10552 10546 10537 10530 10521 10515 10506
10591 10594 10596 10600 10604 10609 10612 10615 10616 10618 10617 10617 10617 10618 10617 10615 10613 10613 10611 10607 10603 10600 10597 10596 10595 10593 10589 10584 10580 10576 10571 10566 10559 10553 10545 10534 10533 10524 10517 10506 10498 10491 10483